Location: Fontevrault
(47.1823°N, 0.0493°E)
Time: 09:59:26
(UTC+00:00)

USA 215 - Pass Details

Date: 16 June 2021
Orbit: 1100 x 1107 km, 123.0° (Epoch: 01 August)

Event Time Altitude Azimuth Distance (km) Brightness Sun altitude
Rises 23:20:04 0° 53° (NE) 3,923 6.5 -18.8°
Reaches altitude 10° 23:22:33 10° 52° (NE) 2,963 5.9 -18.9°
Maximum altitude 23:29:05 77° 329° (NNW) 1,130 3.4 -19.1°
Drops below altitude 10° 23:35:36 10° 244° (WSW) 2,955 5.3 -19.2°
Sets 23:38:05 0° 243° (WSW) 3,911 5.9 -19.3°
